Regional Weather Roundup
Issued by NWS Sioux Falls, SD

Home | Current Version | Previous Version | Text Only | Print | Product List | Glossary On
Versions: 1 2 3 4 5 6 7 8 9 10 11 12 13 14 15 16 17 18 19 20 21 22 23 24 25 26 27 28 29 30 31 32 33 34 35 36 37 38 39 40 41 42 43 44 45 46 47 48 49 50
000
ASUS43 KFSD 282010
RWRFSD

WEATHER ROUNDUP FOR SE SOUTH DAKOTA/SW MINNESOTA/NW IOWA
NATIONAL WEATHER SERVICE SIOUX FALLS SD
300 PM CDT TUE JUL 28 2015

NOTE: "FAIR" INDICATES FEW OR NO CLOUDS BELOW 12,000 FEET WITH NO
SIGNIFICANT WEATHER AND OR OBSTRUCTIONS TO VISIBILITY.


SDZ038>040-050-052>070-282100-
SOUTHEAST SOUTH DAKOTA

CITY           SKY/WX    TMP DP  RH WIND       PRES   REMARKS
BROOKINGS      SUNNY     75  59  57 W23       29.90R
CHAMBERLAIN    SUNNY     78  51  38 NW20G25   29.95S
HURON          SUNNY     78  55  44 W18G28    29.89R
MADISON        FAIR      75  59  57 NW17      29.91R
MITCHELL       SUNNY     79  56  45 NW16      29.92S
SIOUX FALLS    MOSUNNY   79  62  56 NW16G24   29.89R
WINNER         FAIR      80  47  31 W22G30    29.99R
YANKTON        SUNNY     79  57  47 MISG      29.91
$$

MNZ071-072-080-081-089-090-097-098-282100-
SOUTHWEST MINNESOTA

CITY           SKY/WX    TMP DP  RH WIND       PRES   REMARKS
FAIRMONT       CLOUDY    81  66  61 SW9       29.87R
JACKSON        CLOUDY    79  72  78 SW12      29.88S
LUVERNE          N/A    N/A N/A N/A MISG        N/A
MARSHALL       MOSUNNY   81  61  50 NW20      29.85S
MONTEVIDEO     MOSUNNY   82  77  83 NW12G20   29.84R
PIPESTONE      SUNNY     77  59  53 NW17      29.89R
REDWOOD FALLS  CLOUDY    82  71  69 W15       29.81R
TRACY          CLOUDY    79  72  78 NW8       29.86R
WINDOM         PTSUNNY   79  70  73 SW10      29.86S
WORTHINGTON    CLOUDY    73  68  83 W8        29.88S
$$

IAZ001>003-012>014-020>022-031-032-NEZ013-014-SDZ071-282100-
NORTHWEST IOWA

CITY           SKY/WX    TMP DP  RH WIND       PRES   REMARKS
CHEROKEE       CLOUDY    77  73  88 SW7       29.90R
DENISON        CLOUDY    77  75  94 S6G15     29.86R FOG
ESTHERVILLE    CLOUDY    78  71  79 SW12      29.88R
LE MARS        CLOUDY    77  72  83 W5        29.91R
ORANGE CITY    CLOUDY    73  70  88 W9        29.90R
SHELDON        CLOUDY    75  72  88 VRB3      29.88R
SIOUX CITY     CLOUDY    76  69  79 NW8       29.90R
SPENCER        CLOUDY    78  70  76 SW12      29.89R
STORM LAKE     CLOUDY    75  72  88 VRB5      29.92R
$$

ABBREVIATIONS USED IN REMARKS
   TC - TEMPERATURE IN CELSIUS
  WCI - WIND CHILL INDEX
   HX - HEAT INDEX
  VSB - VISIBILITY



USA.gov is the U.S. government's official web portal to all federal, state and local government web resources and services.